,,,PA_Meas_PMT16A,,PR_Meas_QMR101_102,,RH_Meas_QMH101,,SR_Meas_QMS101,,TA_Meas_QMH101,,GenWind,,GenWind,
date,time,status,PA,status,PR,status,RH,status,SR,status,TA,status,DirAvg,status,SpdAvg,
2011-05-12, 00:00:04,VALID,1001.61,VALID,0,VALID,90.9985,VALID,0,VALID,23.5469,VALID,82,VALID,0,
2011-05-12, 00:01:04,VALID,1001.6,VALID,0,VALID,91.0366,VALID,0,VALID,23.5256,VALID,97,VALID,0,
2011-05-12, 00:02:04,VALID,1001.6,VALID,0,VALID,91.0519,VALID,0,VALID,23.5646,VALID,97,VALID,0,
2011-05-12, 00:03:04,VALID,1001.62,VALID,0,VALID,91.0443,VALID,0,VALID,23.5451,VALID,97,VALID,0,
2011-05-12, 00:04:04,VALID,1001.57,VALID,0,VALID,90.9756,VALID,0,VALID,23.5451,VALID,97,VALID,0,
2011-05-12, 00:05:04,VALID,1001.56,VALID,0,VALID,90.968,VALID,0,VALID,23.5646,VALID,97,VALID,0,
2011-05-12, 00:06:04,VALID,1001.56,VALID,0,VALID,90.9756,VALID,0,VALID,23.5841,VALID,97,VALID,0,
2011-05-12, 00:07:04,VALID,1001.54,VALID,0,VALID,91.029,VALID,0,VALID,23.6232,VALID,97,VALID,0,
2011-05-12, 00:08:04,VALID,1001.53,VALID,0,VALID,90.9832,VALID,0,VALID,23.5823,VALID,97,VALID,0,
2011-05-12, 00:09:04,VALID,1001.52,VALID,0,VALID,90.9069,VALID,0,VALID,23.6036,VALID,97,VALID,0,
2011-05-12, 00:10:04,VALID,1001.51,VALID,0,VALID,90.8077,VALID,0,VALID,23.5841,VALID,97,VALID,0,
2011-05-12, 00:11:04,VALID,1001.5,VALID,0,VALID,90.8535,VALID,0,VALID,23.5841,VALID,97,VALID,0,
2011-05-12, 00:12:04,VALID,1001.49,VALID,0,VALID,90.9069,VALID,0,VALID,23.5841,VALID,129,VALID,0.395703,
2011-05-12, 00:13:04,VALID,1001.45,VALID,0,VALID,91.0137,VALID,0,VALID,23.6036,VALID,137,VALID,0.408203,
2011-05-12, 00:14:04,VALID,1001.47,VALID,0,VALID,91.09,VALID,0,VALID,23.5841,VALID,137,VALID,0,
2011-05-12, 00:15:04,VALID,1001.41,VALID,0,VALID,91.174,VALID,0,VALID,23.6036,VALID,137,VALID,0,
2011-05-12, 00:16:04,VALID,1001.4,VALID,0,VALID,91.3342,VALID,0,VALID,23.6427,VALID,137,VALID,0.776563,
2011-05-12, 00:17:04,VALID,1001.4,VALID,0,VALID,91.3876,VALID,0,VALID,23.6817,VALID,137,VALID,0.798828,
2011-05-12, 00:18:04,VALID,1001.37,VALID,0,VALID,91.3189,VALID,0,VALID,23.6817,VALID,137,VALID,0.880469,
2011-05-12, 00:19:04,VALID,1001.35,VALID,0,VALID,91.1892,VALID,0,VALID,23.6817,VALID,134,VALID,0.991406,
2011-05-12, 00:20:04,VALID,1001.32,VALID,0,VALID,91.09,VALID,0,VALID,23.7012,VALID,125,VALID,0.904688,
2011-05-12, 00:21:04,VALID,1001.29,VALID,0,VALID,90.9298,VALID,0,VALID,23.6817,VALID,125,VALID,0.672656,
2011-05-12, 00:22:04,VALID,1001.29,VALID,0,VALID,90.7772,VALID,0,VALID,23.6817,VALID,127,VALID,0.941797,
2011-05-12, 00:23:04,VALID,1001.29,VALID,0,VALID,90.6551,VALID,0,VALID,23.6622,VALID,138,VALID,1.04141,
2011-05-12, 00:24:04,VALID,1001.29,VALID,0,VALID,90.6857,VALID,0,VALID,23.6427,VALID,142,VALID,0.901172,
2011-05-12, 00:25:04,VALID,1001.28,VALID,0,VALID,90.7162,VALID,0,VALID,23.6427,VALID,142,VALID,0.912891,
2011-05-12, 00:26:04,VALID,1001.26,VALID,0,VALID,90.7238,VALID,0,VALID,23.6622,VALID,142,VALID,0.610547,
2011-05-12, 00:27:04,VALID,1001.25,VALID,0,VALID,90.7238,VALID,0,VALID,23.6427,VALID,120,VALID,0.854297,
2011-05-12, 00:28:04,VALID,1001.26,VALID,0,VALID,90.7009,VALID,0,VALID,23.6427,VALID,120,VALID,0.3125,
2011-05-12, 00:29:04,VALID,1001.26,VALID,0,VALID,90.6094,VALID,0,VALID,23.6232,VALID,120,VALID,0,
2011-05-12, 00:30:04,VALID,1001.23,VALID,0,VALID,90.5941,VALID,0,VALID,23.5841,VALID,120,VALID,0,
2011-05-12, 00:31:04,VALID,1001.21,VALID,0,VALID,90.7085,VALID,0,VALID,23.5628,VALID,120,VALID,0,
2011-05-12, 00:32:04,VALID,1001.21,VALID,0,VALID,90.8611,VALID,0,VALID,23.5433,VALID,120,VALID,0,
2011-05-12, 00:33:04,VALID,1001.19,VALID,0,VALID,90.9909,VALID,0,VALID,23.5646,VALID,120,VALID,0,
2011-05-12, 00:34:04,VALID,1001.19,VALID,0,VALID,91.1434,VALID,0,VALID,23.5628,VALID,120,VALID,0,
2011-05-12, 00:35:04,VALID,1001.2,VALID,0,VALID,91.2808,VALID,0,VALID,23.5841,VALID,120,VALID,0,
2011-05-12, 00:36:04,VALID,1001.2,VALID,0,VALID,91.4181,VALID,0,VALID,23.6036,VALID,115,VALID,0,
2011-05-12, 00:37:04,VALID,1001.2,VALID,0,VALID,91.4563,VALID,0,VALID,23.6036,VALID,99,VALID,0,
2011-05-12, 00:38:04,VALID,1001.21,VALID,0,VALID,91.4181,VALID,0,VALID,23.5841,VALID,91,VALID,0.914063,
2011-05-12, 00:39:04,VALID,1001.21,VALID,0,VALID,91.38,VALID,0,VALID,23.6232,VALID,79,VALID,0.824219,
2011-05-12, 00:40:04,VALID,1001.21,VALID,0,VALID,91.2503,VALID,0,VALID,23.6036,VALID,46,VALID,0.914453,
2011-05-12, 00:41:04,VALID,1001.19,VALID,0,VALID,91.0748,VALID,0,VALID,23.5841,VALID,36,VALID,0.739453,
2011-05-12, 00:42:04,VALID,1001.19,VALID,0,VALID,90.9069,VALID,0,VALID,23.5043,VALID,34,VALID,0.687109,
2011-05-12, 00:43:04,VALID,1001.18,VALID,0,VALID,90.884,VALID,0,VALID,23.5061,VALID,35,VALID,0.900391,
2011-05-12, 00:44:04,VALID,1001.19,VALID,0,VALID,90.823,VALID,0,VALID,23.4475,VALID,28,VALID,0.794141,
2011-05-12, 00:45:04,VALID,1001.17,VALID,0,VALID,90.8459,VALID,0,VALID,23.428,VALID,24,VALID,0.895703,
2011-05-12, 00:46:04,VALID,1001.19,VALID,0,VALID,90.8917,VALID,0,VALID,23.3695,VALID,19,VALID,0.994531,
2011-05-12, 00:47:04,VALID,1001.18,VALID,0,VALID,91.0443,VALID,0,VALID,23.3695,VALID,16,VALID,0.825391,
2011-05-12, 00:48:04,VALID,1001.16,VALID,0,VALID,91.1663,VALID,0,VALID,23.3695,VALID,13,VALID,0.776953,
2011-05-12, 00:49:04,VALID,1001.13,VALID,0,VALID,91.2655,VALID,0,VALID,23.3695,VALID,13,VALID,0.685156,
2011-05-12, 00:50:04,VALID,1001.13,VALID,0,VALID,91.3189,VALID,0,VALID,23.35,VALID,13,VALID,0.505078,
2011-05-12, 00:51:04,VALID,1001.15,VALID,0,VALID,91.3189,VALID,0,VALID,23.3092,VALID,13,VALID,0.557422,
2011-05-12, 00:52:04,VALID,1001.11,VALID,0,VALID,91.3342,VALID,0,VALID,23.3305,VALID,13,VALID,0.516016,
2011-05-12, 00:53:04,VALID,1001.12,VALID,0,VALID,91.3266,VALID,0,VALID,23.2915,VALID,13,VALID,0.567578,
2011-05-12, 00:54:04,VALID,1001.1,VALID,0,VALID,91.3494,VALID,0,VALID,23.2719,VALID,13,VALID,0.519922,
2011-05-12, 00:55:04,VALID,1001.11,VALID,0,VALID,91.3952,VALID,0,VALID,23.2524,VALID,13,VALID,0.245312,
2011-05-12, 00:56:04,VALID,1001.1,VALID,0,VALID,91.4868,VALID,0,VALID,23.2524,VALID,13,VALID,0.463281,
2011-05-12, 00:57:04,VALID,1001.11,VALID,0,VALID,91.586,VALID,0,VALID,23.2524,VALID,13,VALID,0.471875,
2011-05-12, 00:58:04,VALID,1001.11,VALID,0,VALID,91.6928,VALID,0,VALID,23.2524,VALID,13,VALID,0.510938,
2011-05-12, 00:59:04,VALID,1001.09,VALID,0,VALID,91.7691,VALID,0,VALID,23.2524,VALID,13,VALID,0.381641,
2011-05-12, 01:00:04,VALID,1001.09,VALID,0,VALID,91.7996,VALID,0,VALID,23.2329,VALID,13,VALID,0.617578,
2011-05-12, 01:01:04,VALID,1001.08,VALID,0,VALID,91.8835,VALID,0,VALID,23.2134,VALID,13,VALID,0.603906,
2011-05-12, 01:02:04,VALID,1001.06,VALID,0,VALID,91.853,VALID,0,VALID,23.1939,VALID,13,VALID,0.479688,
2011-05-12, 01:03:04,VALID,1001.03,VALID,0,VALID,91.8835,VALID,0,VALID,23.1549,VALID,13,VALID,0.372266,
2011-05-12, 01:04:04,VALID,1001.01,VALID,0,VALID,91.9445,VALID,0,VALID,23.1354,VALID,13,VALID,0.148828,
2011-05-12, 01:05:04,VALID,1001.02,VALID,0,VALID,92.0285,VALID,0,VALID,23.1354,VALID,13,VALID,0.0167969,
2011-05-12, 01:06:04,VALID,1001.02,VALID,0,VALID,92.0895,VALID,0,VALID,23.1354,VALID,14,VALID,0.730859,
2011-05-12, 01:07:04,VALID,1001.02,VALID,0,VALID,92.1124,VALID,0,VALID,23.1159,VALID,15,VALID,0.695313,
2011-05-12, 01:08:04,VALID,1001.01,VALID,0,VALID,92.059,VALID,0,VALID,23.1354,VALID,28,VALID,0.678125,
2011-05-12, 01:09:04,VALID,1000.98,VALID,0,VALID,91.9827,VALID,0,VALID,23.1159,VALID,28,VALID,0.75625,
2011-05-12, 01:10:04,VALID,1000.96,VALID,0,VALID,91.9064,VALID,0,VALID,23.0964,VALID,32,VALID,0.744141,
2011-05-12, 01:11:04,VALID,1000.94,VALID,0,VALID,91.8301,VALID,0,VALID,23.0964,VALID,48,VALID,1.08984,
2011-05-12, 01:12:04,VALID,1000.93,VALID,0,VALID,91.792,VALID,0,VALID,23.0964,VALID,51,VALID,1.47148,
2011-05-12, 01:13:04,VALID,1000.91,VALID,0,VALID,91.8377,VALID,0,VALID,23.1159,VALID,55,VALID,1.38594,
2011-05-12, 01:14:04,VALID,1000.9,VALID,0,VALID,91.8377,VALID,0,VALID,23.1371,VALID,54,VALID,1.33398,
2011-05-12, 01:15:04,VALID,1000.89,VALID,0,VALID,91.8225,VALID,0,VALID,23.1354,VALID,54,VALID,1.28555,
2011-05-12, 01:16:04,VALID,1000.87,VALID,0,VALID,91.8072,VALID,0,VALID,23.1159,VALID,52,VALID,1.2875,
2011-05-12, 01:17:04,VALID,1000.87,VALID,0,VALID,91.8072,VALID,0,VALID,23.0964,VALID,42,VALID,1.13672,
2011-05-12, 01:18:04,VALID,1000.87,VALID,0,VALID,91.8301,VALID,0,VALID,23.0964,VALID,43,VALID,1.075,
2011-05-12, 01:19:04,VALID,1000.87,VALID,0,VALID,91.8072,VALID,0,VALID,23.0769,VALID,44,VALID,0.872266,
2011-05-12, 01:20:04,VALID,1000.88,VALID,0,VALID,91.7843,VALID,0,VALID,23.0573,VALID,44,VALID,1.07305,
2011-05-12, 01:21:04,VALID,1000.9,VALID,0,VALID,91.7385,VALID,0,VALID,23.0378,VALID,46,VALID,1.00547,
2011-05-12, 01:22:04,VALID,1000.9,VALID,0,VALID,91.7233,VALID,0,VALID,23.0183,VALID,41,VALID,0.873438,
2011-05-12, 01:23:04,VALID,1000.9,VALID,0,VALID,91.7691,VALID,0,VALID,23.0183,VALID,39,VALID,0.844922,
2011-05-12, 01:24:04,VALID,1000.93,VALID,0,VALID,91.8148,VALID,0,VALID,22.9988,VALID,37,VALID,0.705859,
2011-05-12, 01:25:04,VALID,1000.9,VALID,0,VALID,91.8454,VALID,0,VALID,22.9793,VALID,30,VALID,0.980469,
2011-05-12, 01:26:04,VALID,1000.88,VALID,0,VALID,91.853,VALID,0,VALID,22.9598,VALID,25,VALID,0.798047,
2011-05-12, 01:27:04,VALID,1000.89,VALID,0,VALID,91.853,VALID,0,VALID,22.9598,VALID,26,VALID,0.797266,
2011-05-12, 01:28:04,VALID,1000.87,VALID,0,VALID,91.853,VALID,0,VALID,22.9403,VALID,28,VALID,0.651953,
2011-05-12, 01:29:04,VALID,1000.86,VALID,0,VALID,91.8759,VALID,0,VALID,22.9208,VALID,28,VALID,0.741797,
2011-05-12, 01:30:04,VALID,1000.84,VALID,0,VALID,91.8683,VALID,0,VALID,22.9013,VALID,28,VALID,0.648438,
2011-05-12, 01:31:04,VALID,1000.81,VALID,0,VALID,91.914,VALID,0,VALID,22.9013,VALID,28,VALID,0.76875,
2011-05-12, 01:32:04,VALID,1000.8,VALID,0,VALID,91.9369,VALID,0,VALID,22.8818,VALID,28,VALID,0.906641,
2011-05-12, 01:33:04,VALID,1000.79,VALID,0,VALID,91.9598,VALID,0,VALID,22.8623,VALID,28,VALID,0.802734,
2011-05-12, 01:34:04,VALID,1000.74,VALID,0,VALID,91.998,VALID,0,VALID,22.8427,VALID,28,VALID,0.790234,
2011-05-12, 01:35:04,VALID,1000.73,VALID,0,VALID,92.0285,VALID,0,VALID,22.8427,VALID,28,VALID,0.617578,
2011-05-12, 01:36:04,VALID,1000.73,VALID,0,VALID,92.0285,VALID,0,VALID,22.8232,VALID,28,VALID,0.409766,
2011-05-12, 01:37:04,VALID,1000.71,VALID,0,VALID,92.0285,VALID,0,VALID,22.7842,VALID,28,VALID,0.653516,
2011-05-12, 01:38:04,VALID,1000.67,VALID,0,VALID,92.0666,VALID,0,VALID,22.7842,VALID,28,VALID,0.829687,
2011-05-12, 01:39:04,VALID,1000.64,VALID,0,VALID,92.1353,VALID,0,VALID,22.7842,VALID,28,VALID,0.932813,
2011-05-12, 01:40:04,VALID,1000.63,VALID,0,VALID,92.2192,VALID,0,VALID,22.8445,VALID,28,VALID,0.985937,
2011-05-12, 01:41:04,VALID,1000.6,VALID,0,VALID,92.2803,VALID,0,VALID,22.8623,VALID,28,VALID,0.848828,
2011-05-12, 01:42:04,VALID,1000.61,VALID,0,VALID,92.3108,VALID,0,VALID,22.8623,VALID,28,VALID,0.728516,
2011-05-12, 01:43:04,VALID,1000.6,VALID,0,VALID,92.3031,VALID,0,VALID,22.8818,VALID,28,VALID,0.661719,
2011-05-12, 01:44:04,VALID,1000.57,VALID,0,VALID,92.2192,VALID,0,VALID,22.8818,VALID,28,VALID,0.649609,
2011-05-12, 01:45:04,VALID,1000.57,VALID,0,VALID,92.1658,VALID,0,VALID,22.8623,VALID,28,VALID,0.557422,
2011-05-12, 01:46:04,VALID,1000.58,VALID,0,VALID,92.1582,VALID,0,VALID,22.9013,VALID,28,VALID,0.414063,
2011-05-12, 01:47:04,VALID,1000.55,VALID,0,VALID,92.1048,VALID,0,VALID,22.9013,VALID,28,VALID,0.396875,
2011-05-12, 01:48:04,VALID,1000.54,VALID,0,VALID,92.0361,VALID,0,VALID,22.9208,VALID,28,VALID,0.410547,
2011-05-12, 01:49:04,VALID,1000.5,VALID,0,VALID,91.9674,VALID,0,VALID,22.9403,VALID,28,VALID,0.378516,
2011-05-12, 01:50:04,VALID,1000.5,VALID,0,VALID,91.8988,VALID,0,VALID,22.9598,VALID,28,VALID,0.293359,
2011-05-12, 01:51:04,VALID,1000.49,VALID,0,VALID,91.7767,VALID,0,VALID,22.9793,VALID,28,VALID,0.444922,
2011-05-12, 01:52:04,VALID,1000.46,VALID,0,VALID,91.6928,VALID,0,VALID,22.9988,VALID,28,VALID,0.515234,
2011-05-12, 01:53:04,VALID,1000.47,VALID,0,VALID,91.5783,VALID,0,VALID,22.9988,VALID,28,VALID,0.507031,
2011-05-12, 01:54:04,VALID,1000.46,VALID,0,VALID,91.441,VALID,0,VALID,22.9988,VALID,28,VALID,0.435547,
2011-05-12, 01:55:04,VALID,1000.42,VALID,0,VALID,91.3876,VALID,0,VALID,22.9988,VALID,28,VALID,0.360547,
2011-05-12, 01:56:04,VALID,1000.46,VALID,0,VALID,91.3647,VALID,0,VALID,22.9988,VALID,28,VALID,0.424219,
2011-05-12, 01:57:04,VALID,1000.45,VALID,0,VALID,91.3494,VALID,0,VALID,23.0183,VALID,28,VALID,0.570703,
2011-05-12, 01:58:04,VALID,1000.43,VALID,0,VALID,91.3113,VALID,0,VALID,23.0183,VALID,28,VALID,0.684375,
2011-05-12, 01:59:04,VALID,1000.4,VALID,0,VALID,91.2274,VALID,0,VALID,23.0183,VALID,32,VALID,0.664063,
2011-05-12, 02:00:04,VALID,1000.43,VALID,0,VALID,91.1816,VALID,0,VALID,23.0183,VALID,32,VALID,0.683984,
2011-05-12, 02:01:04,VALID,1000.41,VALID,0,VALID,91.1129,VALID,0,VALID,22.9988,VALID,32,VALID,0.789844,
2011-05-12, 02:02:04,VALID,1000.41,VALID,0,VALID,91.09,VALID,0,VALID,22.9988,VALID,50,VALID,0.881641,
2011-05-12, 02:03:04,VALID,1000.36,VALID,0,VALID,91.1587,VALID,0,VALID,23.0183,VALID,50,VALID,0.830859,
2011-05-12, 02:04:04,VALID,1000.35,VALID,0,VALID,91.1968,VALID,0,VALID,23.0183,VALID,54,VALID,0.749219,
2011-05-12, 02:05:04,VALID,1000.34,VALID,0,VALID,91.1434,VALID,0,VALID,23.0183,VALID,54,VALID,0.630859,
2011-05-12, 02:06:04,VALID,1000.32,VALID,0,VALID,91.1206,VALID,0,VALID,22.9776,VALID,54,VALID,0.524219,
2011-05-12, 02:07:04,VALID,1000.33,VALID,0,VALID,91.2045,VALID,0,VALID,22.9776,VALID,54,VALID,0.54375,
2011-05-12, 02:08:04,VALID,1000.32,VALID,0,VALID,91.3266,VALID,0,VALID,22.9793,VALID,54,VALID,0.511328,
2011-05-12, 02:09:04,VALID,1000.35,VALID,0,VALID,91.3647,VALID,0,VALID,22.9581,VALID,54,VALID,0.420312,
2011-05-12, 02:10:04,VALID,1000.36,VALID,0,VALID,91.4028,VALID,0,VALID,22.9598,VALID,54,VALID,0.301562,
2011-05-12, 02:11:04,VALID,1000.35,VALID,0,VALID,91.3723,VALID,0,VALID,22.9013,VALID,54,VALID,0.1625,
2011-05-12, 02:12:04,VALID,1000.37,VALID,0,VALID,91.3113,VALID,0,VALID,22.8623,VALID,54,VALID,0,
2011-05-12, 02:13:04,VALID,1000.35,VALID,0,VALID,91.2884,VALID,0,VALID,22.8232,VALID,54,VALID,0,
2011-05-12, 02:14:04,VALID,1000.36,VALID,0,VALID,91.3342,VALID,0,VALID,22.8055,VALID,54,VALID,0,
2011-05-12, 02:15:04,VALID,1000.35,VALID,0,VALID,91.4105,VALID,0,VALID,22.786,VALID,54,VALID,0,
2011-05-12, 02:16:04,VALID,1000.4,VALID,0,VALID,91.4791,VALID,0,VALID,22.786,VALID,54,VALID,0,
2011-05-12, 02:17:04,VALID,1000.39,VALID,0,VALID,91.5478,VALID,0,VALID,22.786,VALID,54,VALID,0,
2011-05-12, 02:18:04,VALID,1000.38,VALID,0,VALID,91.6394,VALID,0,VALID,22.786,VALID,54,VALID,0,
2011-05-12, 02:19:04,VALID,1000.4,VALID,0,VALID,91.7004,VALID,0,VALID,22.786,VALID,54,VALID,0,
2011-05-12, 02:20:04,VALID,1000.38,VALID,0,VALID,91.7385,VALID,0,VALID,22.7469,VALID,54,VALID,0,
2011-05-12, 02:21:04,VALID,1000.38,VALID,0,VALID,91.7996,VALID,0,VALID,22.7469,VALID,54,VALID,0,
2011-05-12, 02:22:04,VALID,1000.4,VALID,0,VALID,91.8759,VALID,0,VALID,22.7274,VALID,54,VALID,0,
2011-05-12, 02:23:04,VALID,1000.4,VALID,0,VALID,91.9674,VALID,0,VALID,22.7274,VALID,54,VALID,0,
2011-05-12, 02:24:04,VALID,1000.4,VALID,0,VALID,91.998,VALID,0,VALID,22.7079,VALID,54,VALID,0,
2011-05-12, 02:25:04,VALID,1000.38,VALID,0,VALID,92.0743,VALID,0,VALID,22.7079,VALID,54,VALID,0,
2011-05-12, 02:26:04,VALID,1000.41,VALID,0,VALID,92.1811,VALID,0,VALID,22.7079,VALID,54,VALID,0,
2011-05-12, 02:27:04,VALID,1000.41,VALID,0,VALID,92.3184,VALID,0,VALID,22.7469,VALID,54,VALID,0,
2011-05-12, 02:28:04,VALID,1000.44,VALID,0,VALID,92.4023,VALID,0,VALID,22.7664,VALID,54,VALID,0.289844,
2011-05-12, 02:29:04,VALID,1000.45,VALID,0,VALID,92.5015,VALID,0,VALID,22.7842,VALID,54,VALID,0.251563,
2011-05-12, 02:30:04,VALID,1000.44,VALID,0,VALID,92.5397,VALID,0,VALID,22.7842,VALID,54,VALID,0.234375,
2011-05-12, 02:31:04,VALID,1000.44,VALID,0,VALID,92.616,VALID,0,VALID,22.7842,VALID,54,VALID,0.263672,
2011-05-12, 02:32:04,VALID,1000.42,VALID,0,VALID,92.6465,VALID,0,VALID,22.7842,VALID,54,VALID,0.311328,
2011-05-12, 02:33:04,VALID,1000.43,VALID,0,VALID,92.6388,VALID,0,VALID,22.724,VALID,54,VALID,0.296484,
2011-05-12, 02:34:04,VALID,1000.41,VALID,0,VALID,92.6465,VALID,0,VALID,22.7257,VALID,54,VALID,0.192969,
2011-05-12, 02:35:04,VALID,1000.4,VALID,0,VALID,92.6541,VALID,0,VALID,22.685,VALID,54,VALID,0.270703,
2011-05-12, 02:36:04,VALID,1000.35,VALID,0,VALID,92.6617,VALID,0,VALID,22.6867,VALID,54,VALID,0.177734,
2011-05-12, 02:37:04,VALID,1000.36,VALID,0,VALID,92.677,VALID,0,VALID,22.6672,VALID,54,VALID,0,
2011-05-12, 02:38:04,VALID,1000.37,VALID,0,VALID,92.677,VALID,0,VALID,22.6867,VALID,54,VALID,0,
2011-05-12, 02:39:04,VALID,1000.35,VALID,0,VALID,92.6846,VALID,0,VALID,22.6672,VALID,54,VALID,0,
2011-05-12, 02:40:04,VALID,1000.39,VALID,0,VALID,92.7151,VALID,0,VALID,22.6477,VALID,54,VALID,0,
2011-05-12, 02:41:04,VALID,1000.38,VALID,0,VALID,92.7533,VALID,0,VALID,22.6867,VALID,54,VALID,0.492578,
2011-05-12, 02:42:04,VALID,1000.37,VALID,0,VALID,92.7914,VALID,0,VALID,22.6867,VALID,54,VALID,0.428125,
2011-05-12, 02:43:04,VALID,1000.37,VALID,0,VALID,92.8067,VALID,0,VALID,22.7062,VALID,54,VALID,0.35,
2011-05-12, 02:44:04,VALID,1000.37,VALID,0,VALID,92.822,VALID,0,VALID,22.7045,VALID,54,VALID,0.4625,
2011-05-12, 02:45:04,VALID,1000.37,VALID,0,VALID,92.8296,VALID,0,VALID,22.7045,VALID,134,VALID,0.732031,
2011-05-12, 02:46:04,VALID,1000.38,VALID,0,VALID,92.8525,VALID,0,VALID,22.7842,VALID,134,VALID,0.735547,
2011-05-12, 02:47:04,VALID,1000.38,VALID,0,VALID,92.8372,VALID,0,VALID,22.7842,VALID,134,VALID,0.781641,
2011-05-12, 02:48:04,VALID,1000.38,VALID,0,VALID,92.7838,VALID,0,VALID,22.7842,VALID,134,VALID,0.829687,
2011-05-12, 02:49:04,VALID,1000.36,VALID,0,VALID,92.7151,VALID,0,VALID,22.8037,VALID,134,VALID,0.782422,
2011-05-12, 02:50:04,VALID,1000.39,VALID,0,VALID,92.616,VALID,0,VALID,22.8037,VALID,134,VALID,0.801953,
2011-05-12, 02:51:04,VALID,1000.35,VALID,0,VALID,92.532,VALID,0,VALID,22.8037,VALID,134,VALID,0.763281,
2011-05-12, 02:52:04,VALID,1000.34,VALID,0,VALID,92.4328,VALID,0,VALID,22.8232,VALID,134,VALID,0.825781,
2011-05-12, 02:53:04,VALID,1000.39,VALID,0,VALID,92.3642,VALID,0,VALID,22.8427,VALID,134,VALID,0.815234,
2011-05-12, 02:54:04,VALID,1000.34,VALID,0,VALID,92.2726,VALID,0,VALID,22.8427,VALID,134,VALID,0.828516,
2011-05-12, 02:55:04,VALID,1000.34,VALID,0,VALID,92.1811,VALID,0,VALID,22.8623,VALID,134,VALID,0.823438,
2011-05-12, 02:56:04,VALID,1000.33,VALID,0,VALID,92.1734,VALID,0,VALID,22.8623,VALID,134,VALID,0.751953,
2011-05-12, 02:57:04,VALID,1000.34,VALID,0,VALID,92.1658,VALID,0,VALID,22.8623,VALID,134,VALID,0.552344,
2011-05-12, 02:58:04,VALID,1000.32,VALID,0,VALID,92.1963,VALID,0,VALID,22.8818,VALID,129,VALID,0.735547,
2011-05-12, 02:59:04,VALID,1000.32,VALID,0,VALID,92.2345,VALID,0,VALID,22.8818,VALID,122,VALID,0.720312,
2011-05-12, 03:00:04,VALID,1000.29,VALID,0,VALID,92.2345,VALID,0,VALID,22.8605,VALID,106,VALID,0.746094,
2011-05-12, 03:01:04,VALID,1000.3,VALID,0,VALID,92.326,VALID,0,VALID,22.8818,VALID,106,VALID,0.60625,
2011-05-12, 03:02:04,VALID,1000.27,VALID,0,VALID,92.3718,VALID,0,VALID,22.8818,VALID,106,VALID,0.53125,
2011-05-12, 03:03:04,VALID,1000.3,VALID,0,VALID,92.4023,VALID,0,VALID,22.8818,VALID,106,VALID,0.519531,
2011-05-12, 03:04:04,VALID,1000.29,VALID,0,VALID,92.4328,VALID,0,VALID,22.9013,VALID,106,VALID,0.355078,
2011-05-12, 03:05:04,VALID,1000.31,VALID,0,VALID,92.4634,VALID,0,VALID,22.8818,VALID,106,VALID,0,
2011-05-12, 03:06:04,VALID,1000.29,VALID,0,VALID,92.471,VALID,0.112286,VALID,22.8605,VALID,106,VALID,0,
2011-05-12, 03:07:04,VALID,1000.31,VALID,0,VALID,92.4786,VALID,0,VALID,22.8623,VALID,106,VALID,0,
2011-05-12, 03:08:04,VALID,1000.32,VALID,0,VALID,92.5091,VALID,0,VALID,22.841,VALID,106,VALID,0,
2011-05-12, 03:09:04,VALID,1000.34,VALID,0,VALID,92.5015,VALID,0,VALID,22.8623,VALID,106,VALID,0,
2011-05-12, 03:10:04,VALID,1000.34,VALID,0,VALID,92.5015,VALID,0,VALID,22.8232,VALID,106,VALID,0,
2011-05-12, 03:11:04,VALID,1000.36,VALID,0,VALID,92.4786,VALID,0.112286,VALID,22.8037,VALID,106,VALID,0,
2011-05-12, 03:12:04,VALID,1000.41,VALID,0,VALID,92.4405,VALID,0,VALID,22.7452,VALID,106,VALID,0,
2011-05-12, 03:13:04,VALID,1000.42,VALID,0,VALID,92.4328,VALID,0,VALID,22.7045,VALID,106,VALID,0,
2011-05-12, 03:14:04,VALID,1000.43,VALID,0,VALID,92.4786,VALID,0,VALID,22.7257,VALID,106,VALID,0,
2011-05-12, 03:15:04,VALID,1000.45,VALID,0,VALID,92.5168,VALID,0,VALID,22.7045,VALID,106,VALID,0,
2011-05-12, 03:16:04,VALID,1000.45,VALID,0,VALID,92.5397,VALID,0,VALID,22.724,VALID,106,VALID,0,
2011-05-12, 03:17:04,VALID,1000.48,VALID,0,VALID,92.5473,VALID,0,VALID,22.7257,VALID,106,VALID,0,
2011-05-12, 03:18:04,VALID,1000.5,VALID,0,VALID,92.5168,VALID,0,VALID,22.6867,VALID,106,VALID,0,
2011-05-12, 03:19:04,VALID,1000.48,VALID,0,VALID,92.5168,VALID,0,VALID,22.6867,VALID,106,VALID,0,
2011-05-12, 03:20:04,VALID,1000.47,VALID,0,VALID,92.532,VALID,0,VALID,22.685,VALID,106,VALID,0,
2011-05-12, 03:21:04,VALID,1000.45,VALID,0,VALID,92.4786,VALID,0,VALID,22.6672,VALID,106,VALID,0,
2011-05-12, 03:22:04,VALID,1000.48,VALID,0,VALID,92.4939,VALID,0,VALID,22.6477,VALID,106,VALID,0,
2011-05-12, 03:23:04,VALID,1000.47,VALID,0,VALID,92.5473,VALID,0,VALID,22.6477,VALID,106,VALID,0,
2011-05-12, 03:24:04,VALID,1000.47,VALID,0,VALID,92.5931,VALID,0,VALID,22.6655,VALID,106,VALID,0,
2011-05-12, 03:25:04,VALID,1000.46,VALID,0,VALID,92.6312,VALID,0,VALID,22.6867,VALID,106,VALID,0.48125,
2011-05-12, 03:26:04,VALID,1000.49,VALID,0,VALID,92.6388,VALID,0,VALID,22.6655,VALID,106,VALID,0.557031,
2011-05-12, 03:27:04,VALID,1000.5,VALID,0,VALID,92.6617,VALID,0,VALID,22.646,VALID,106,VALID,0.668359,
2011-05-12, 03:28:04,VALID,1000.51,VALID,0,VALID,92.6694,VALID,0,VALID,22.6477,VALID,106,VALID,0.477734,
2011-05-12, 03:29:04,VALID,1000.51,VALID,0,VALID,92.7151,VALID,0,VALID,22.6672,VALID,106,VALID,0.440234,
2011-05-12, 03:30:04,VALID,1000.49,VALID,0,VALID,92.7228,VALID,0,VALID,22.6477,VALID,106,VALID,0.410937,
2011-05-12, 03:31:04,VALID,1000.51,VALID,0,VALID,92.7457,VALID,0,VALID,22.6477,VALID,106,VALID,0.450781,
2011-05-12, 03:32:04,VALID,1000.53,VALID,0,VALID,92.7609,VALID,0,VALID,22.6672,VALID,106,VALID,0.609375,
2011-05-12, 03:33:04,VALID,1000.53,VALID,0,VALID,92.7914,VALID,0,VALID,22.6867,VALID,106,VALID,0.664844,
2011-05-12, 03:34:04,VALID,1000.48,VALID,0,VALID,92.8525,VALID,0,VALID,22.6867,VALID,106,VALID,0.745703,
2011-05-12, 03:35:04,VALID,1000.47,VALID,0,VALID,92.8601,VALID,0,VALID,22.7062,VALID,106,VALID,0.526953,
2011-05-12, 03:36:04,VALID,1000.5,VALID,0,VALID,92.883,VALID,0,VALID,22.7079,VALID,106,VALID,0.596094,
2011-05-12, 03:37:04,VALID,1000.49,VALID,0,VALID,92.883,VALID,0,VALID,22.6884,VALID,106,VALID,0.560938,
2011-05-12, 03:38:04,VALID,1000.47,VALID,0,VALID,92.9059,VALID,0,VALID,22.6884,VALID,106,VALID,0.557813,
2011-05-12, 03:39:04,VALID,1000.45,VALID,0,VALID,92.9135,VALID,0,VALID,22.6494,VALID,106,VALID,0.58125,
2011-05-12, 03:40:04,VALID,1000.46,VALID,0,VALID,92.9059,VALID,0,VALID,22.6282,VALID,106,VALID,0.615625,
2011-05-12, 03:41:04,VALID,1000.46,VALID,0,VALID,92.9211,VALID,0,VALID,22.6689,VALID,119,VALID,0.730078,
2011-05-12, 03:42:04,VALID,1000.47,VALID,0,VALID,92.9135,VALID,0,VALID,22.6672,VALID,119,VALID,0.71875,
2011-05-12, 03:43:04,VALID,1000.49,VALID,0,VALID,92.944,VALID,0,VALID,22.6689,VALID,119,VALID,0.700781,
2011-05-12, 03:44:04,VALID,1000.47,VALID,0,VALID,92.8983,VALID,0,VALID,22.6477,VALID,119,VALID,0.45,
2011-05-12, 03:45:04,VALID,1000.51,VALID,0,VALID,92.8983,VALID,0,VALID,22.6282,VALID,119,VALID,0.289453,
2011-05-12, 03:46:04,VALID,1000.52,VALID,0,VALID,92.8983,VALID,0,VALID,22.6282,VALID,119,VALID,0.160156,
2011-05-12, 03:47:04,VALID,1000.52,VALID,0,VALID,92.883,VALID,0,VALID,22.6087,VALID,119,VALID,0,
2011-05-12, 03:48:04,VALID,1000.51,VALID,0,VALID,92.8448,VALID,0,VALID,22.5696,VALID,119,VALID,0,
2011-05-12, 03:49:04,VALID,1000.46,VALID,0,VALID,92.8448,VALID,0,VALID,22.5306,VALID,119,VALID,0,
2011-05-12, 03:50:04,VALID,1000.46,VALID,0,VALID,92.8296,VALID,0,VALID,22.5501,VALID,88,VALID,0,